Overview Statistics Trail Chart Weather Telemetry Raw packets
 

This is the latest recevied weather packets stored in our database for station/object F5TND-14. If no packets are shown the sender has not sent any weather packets the latest 10 day(s).

<< 50 51 52 53 54 55 56 >>
Time Temp. Humidity Pressure Rain* Wind** Luminosity Snow
1787793164 23.89° C 62% 1010.1 hPa - - - -
1787792563 23.33° C 62% 1010.1 hPa - - - -
1787791964 23.89° C 62% 1009.9 hPa - - - -
1787791373 23.89° C 61% 1009.8 hPa - - - -
1787790760 23.89° C 61% 1010 hPa - - - -
1787790234 23.89° C 62% 1009.8 hPa - - - -
1787790173 23.89° C 62% 1009.8 hPa - - - -
1787789564 23.89° C 62% 1009.8 hPa - - - -
1787788962 23.89° C 62% 1009.6 hPa - - - -
1787788363 23.33° C 63% 1009.7 hPa - - - -
1787787764 23.89° C 62% 1009.9 hPa - - - -
1787787160 23.33° C 64% 1010 hPa - - - -
1787786563 23.33° C 64% 1009.8 hPa - - - -
1787785963 23.33° C 66% 1009.8 hPa - - - -
1787784763 20.56° C 76% 1010 hPa - - - -
1787784171 21.11° C 75% 1009.3 hPa - - - -
1787783561 21.11° C 76% 1008.9 hPa - - - -
1787782963 21.67° C 73% 1009.6 hPa - - - -
1787782363 24.44° C 61% 1009.7 hPa - - - -
1787781162 24.44° C 61% 1009.5 hPa - - - -
1787780569 23.89° C 62% 1009.3 hPa - - - -
1787779961 23.89° C 62% 1007.7 hPa - - - -
1787779367 24.44° C 60% 1007.6 hPa - - - -
1787778762 24.44° C 61% 1007.9 hPa - - - -
1787778161 23.89° C 61% 1007.9 hPa - - - -

* Rain since midnight (hover to see other rain measurements)
** Current wind speed in m/s (hover to see current wind gust speed)